When you browse on this site, cookies collect data to enhance your experience and personalize the content and advertising you see.
Visit our Privacy Policy to learn more. By continuing to use the site, you agree to this use of cookies and data.
  • In Schweiz
  • Länderverzeichnis
  • Für 7 Tage
  • Wassertemperatur
  • Wetterkarte
  • Widgets
  • user-avatar
    Anmelden

    Stündliche Wetter Prisele

    Heute, 13 Dezember, Freitag

    Zeit Temperatur Niederschläge Wind Luftdruck Luftfeuchtigkeit
    00:00 -1°C° 0 mm 4 m/S 744 mmHg 94%
    01:00 -1°C° 0 mm 4 m/S 744 mmHg 95%
    02:00 -1°C° 0 mm 4 m/S 744 mmHg 94%
    03:00 -1°C° 0 mm 4 m/S 744 mmHg 93%
    04:00 0°C° 0 mm 3 m/S 743 mmHg 92%
    05:00 -1°C° 0 mm 3 m/S 743 mmHg 91%
    06:00 -1°C° 0 mm 3 m/S 743 mmHg 91%
    07:00 -1°C° 0 mm 3 m/S 743 mmHg 92%
    08:00 -1°C° 0 mm 3 m/S 743 mmHg 92%
    09:00 -2°C° 0 mm 4 m/S 742 mmHg 91%
    10:00 -2°C° 0 mm 4 m/S 742 mmHg 89%
    11:00 -1°C° 0 mm 4 m/S 742 mmHg 88%
    12:00 -1°C° 0 mm 4 m/S 742 mmHg 86%
    13:00 -1°C° 0 mm 4 m/S 742 mmHg 85%
    14:00 -1°C° 0 mm 4 m/S 741 mmHg 83%
    15:00 -2°C° 0 mm 4 m/S 741 mmHg 85%
    16:00 -2°C° 0 mm 4 m/S 741 mmHg 86%
    17:00 -2°C° 0 mm 4 m/S 740 mmHg 87%
    18:00 -2°C° 0 mm 4 m/S 740 mmHg 87%
    19:00 -2°C° 0 mm 4 m/S 740 mmHg 86%
    20:00 -2°C° 0 mm 4 m/S 740 mmHg 86%
    21:00 -2°C° 0 mm 4 m/S 740 mmHg 86%
    22:00 -2°C° 0 mm 4 m/S 740 mmHg 87%
    23:00 -2°C° 0 mm 4 m/S 740 mmHg 87%

    Morgen, 14 Dezember, Samstag

    Zeit Temperatur Niederschläge Wind Luftdruck Luftfeuchtigkeit
    00:00 -2°C° 0 mm 4 m/S 740 mmHg 86%
    01:00 -2°C° 0 mm 4 m/S 741 mmHg 86%
    02:00 -2°C° 0 mm 4 m/S 741 mmHg 85%
    03:00 -2°C° 0 mm 4 m/S 740 mmHg 85%
    04:00 -2°C° 0 mm 4 m/S 740 mmHg 85%
    05:00 -2°C° 0 mm 4 m/S 740 mmHg 85%
    06:00 -2°C° 0 mm 4 m/S 740 mmHg 85%
    07:00 -2°C° 0 mm 4 m/S 741 mmHg 86%
    08:00 -2°C° 0 mm 4 m/S 741 mmHg 86%
    09:00 -2°C° 0 mm 4 m/S 741 mmHg 85%
    10:00 -2°C° 0 mm 4 m/S 741 mmHg 85%
    11:00 -2°C° 0 mm 4 m/S 741 mmHg 84%
    12:00 -2°C° 0 mm 4 m/S 741 mmHg 84%
    13:00 -2°C° 0 mm 4 m/S 741 mmHg 84%
    14:00 -1°C° 0 mm 4 m/S 741 mmHg 83%
    15:00 -2°C° 0 mm 4 m/S 741 mmHg 85%
    16:00 -2°C° 0 mm 4 m/S 740 mmHg 86%
    17:00 -2°C° 0 mm 4 m/S 740 mmHg 88%
    18:00 -2°C° 0.1 mm 4 m/S 740 mmHg 89%
    19:00 -2°C° 0.1 mm 4 m/S 740 mmHg 91%
    20:00 -2°C° 0.1 mm 4 m/S 740 mmHg 92%
    21:00 -2°C° 0 mm 4 m/S 740 mmHg 92%
    22:00 -2°C° 0 mm 4 m/S 740 mmHg 92%
    23:00 -2°C° 0 mm 4 m/S 740 mmHg 92%

    übermorgen, 15 Dezember, Sonntag

    Zeit Temperatur Niederschläge Wind Luftdruck Luftfeuchtigkeit
    00:00 -2°C° 0.1 mm 4 m/S 739 mmHg 93%
    01:00 -1°C° 0.1 mm 4 m/S 739 mmHg 94%
    02:00 -1°C° 0.1 mm 4 m/S 739 mmHg 95%
    03:00 -1°C° 0.1 mm 4 m/S 738 mmHg 95%
    04:00 0°C° 0.1 mm 4 m/S 738 mmHg 95%
    05:00 0°C° 0.1 mm 4 m/S 737 mmHg 94%
    06:00 +1°C° 0.3 mm 4 m/S 737 mmHg 94%
    07:00 +1°C° 0.3 mm 4 m/S 737 mmHg 94%
    08:00 +1°C° 0.3 mm 5 m/S 736 mmHg 94%
    09:00 +3°C° 0.3 mm 4 m/S 736 mmHg 94%
    10:00 +3°C° 0.3 mm 4 m/S 736 mmHg 94%
    11:00 +3°C° 0.3 mm 4 m/S 736 mmHg 94%
    12:00 +3°C° 0.2 mm 4 m/S 737 mmHg 92%
    13:00 +1°C° 0.2 mm 4 m/S 737 mmHg 89%
    14:00 +1°C° 0.2 mm 4 m/S 738 mmHg 87%
    15:00 0°C° 0 mm 4 m/S 738 mmHg 87%
    16:00 0°C° 0 mm 4 m/S 739 mmHg 87%
    17:00 -1°C° 0 mm 4 m/S 739 mmHg 87%
    18:00 -1°C° 0 mm 4 m/S 740 mmHg 88%
    19:00 -1°C° 0 mm 4 m/S 740 mmHg 89%
    20:00 -1°C° 0 mm 3 m/S 740 mmHg 89%
    21:00 -1°C° 0 mm 4 m/S 740 mmHg 89%
    22:00 -1°C° 0 mm 4 m/S 740 mmHg 89%
    23:00 -1°C° 0 mm 5 m/S 740 mmHg 89%

    16 Dezember, Montag

    Zeit Temperatur Niederschläge Wind Luftdruck Luftfeuchtigkeit
    00:00 0°C° 0.1 mm 5 m/S 739 mmHg 90%
    01:00 +1°C° 0.1 mm 6 m/S 739 mmHg 91%
    02:00 +1°C° 0.1 mm 6 m/S 739 mmHg 93%
    03:00 +1°C° 0 mm 6 m/S 739 mmHg 91%
    04:00 +1°C° 0 mm 5 m/S 740 mmHg 90%
    05:00 +2°C° 0 mm 5 m/S 740 mmHg 89%
    06:00 +1°C° 0 mm 5 m/S 740 mmHg 89%
    07:00 +1°C° 0 mm 4 m/S 740 mmHg 89%
    08:00 0°C° 0 mm 4 m/S 741 mmHg 89%
    09:00 0°C° 0 mm 5 m/S 741 mmHg 86%
    10:00 0°C° 0 mm 5 m/S 742 mmHg 84%
    11:00 +1°C° 0 mm 5 m/S 742 mmHg 82%
    12:00 0°C° 0 mm 5 m/S 742 mmHg 80%
    13:00 0°C° 0 mm 4 m/S 742 mmHg 78%
    14:00 0°C° 0 mm 4 m/S 742 mmHg 76%
    15:00 0°C° 0 mm 4 m/S 743 mmHg 79%
    16:00 -1°C° 0 mm 4 m/S 743 mmHg 81%
    17:00 -1°C° 0 mm 4 m/S 744 mmHg 84%
    18:00 -1°C° 0 mm 3 m/S 744 mmHg 85%
    19:00 -1°C° 0 mm 3 m/S 744 mmHg 86%
    20:00 -1°C° 0 mm 3 m/S 745 mmHg 87%
    21:00 -1°C° 0 mm 3 m/S 745 mmHg 87%
    22:00 -1°C° 0 mm 3 m/S 745 mmHg 87%
    23:00 -1°C° 0 mm 3 m/S 745 mmHg 87%

    17 Dezember, Dienstag

    Zeit Temperatur Niederschläge Wind Luftdruck Luftfeuchtigkeit
    00:00 -1°C° 0 mm 3 m/S 745 mmHg 86%
    01:00 -1°C° 0 mm 3 m/S 745 mmHg 84%
    02:00 -1°C° 0 mm 3 m/S 745 mmHg 83%
    03:00 -1°C° 0 mm 3 m/S 745 mmHg 85%
    04:00 0°C° 0 mm 3 m/S 744 mmHg 87%
    05:00 0°C° 0 mm 3 m/S 744 mmHg 89%
    06:00 +1°C° 0.2 mm 3 m/S 744 mmHg 91%
    07:00 +1°C° 0.2 mm 3 m/S 744 mmHg 94%
    08:00 +1°C° 0.2 mm 3 m/S 744 mmHg 97%
    09:00 +2°C° 0.2 mm 3 m/S 744 mmHg 96%
    10:00 +2°C° 0.2 mm 3 m/S 744 mmHg 96%
    11:00 +2°C° 0.2 mm 3 m/S 744 mmHg 96%
    12:00 +2°C° 0.2 mm 3 m/S 744 mmHg 96%
    13:00 +3°C° 0.2 mm 2 m/S 744 mmHg 96%
    14:00 +3°C° 0.2 mm 2 m/S 743 mmHg 96%
    15:00 +3°C° 0.1 mm 2 m/S 743 mmHg 96%
    16:00 +2°C° 0.1 mm 2 m/S 743 mmHg 96%
    17:00 +2°C° 0.1 mm 2 m/S 743 mmHg 96%
    18:00 +2°C° 0.1 mm 2 m/S 743 mmHg 96%
    19:00 +2°C° 0.1 mm 2 m/S 743 mmHg 96%
    20:00 +2°C° 0.1 mm 2 m/S 743 mmHg 96%
    21:00 +1°C° 0 mm 2 m/S 743 mmHg 96%
    22:00 +1°C° 0 mm 2 m/S 743 mmHg 96%
    23:00 +1°C° 0 mm 2 m/S 743 mmHg 96%

    18 Dezember, Mittwoch

    Zeit Temperatur Niederschläge Wind Luftdruck Luftfeuchtigkeit
    00:00 +1°C° 0 mm 2 m/S 743 mmHg 96%
    01:00 +1°C° 0 mm 2 m/S 743 mmHg 96%
    02:00 +1°C° 0 mm 2 m/S 743 mmHg 96%
    03:00 +1°C° 0 mm 2 m/S 743 mmHg 96%
    04:00 +1°C° 0 mm 2 m/S 743 mmHg 96%
    05:00 +1°C° 0 mm 2 m/S 742 mmHg 96%
    06:00 +1°C° 0 mm 2 m/S 742 mmHg 96%
    07:00 +1°C° 0 mm 2 m/S 742 mmHg 96%
    08:00 +1°C° 0 mm 2 m/S 742 mmHg 96%
    09:00 +2°C° 0 mm 2 m/S 742 mmHg 95%
    10:00 +2°C° 0 mm 2 m/S 742 mmHg 93%
    11:00 +3°C° 0 mm 2 m/S 742 mmHg 92%
    12:00 +3°C° 0 mm 2 m/S 742 mmHg 92%
    13:00 +3°C° 0 mm 2 m/S 741 mmHg 93%
    14:00 +3°C° 0 mm 2 m/S 741 mmHg 93%
    15:00 +2°C° 0 mm 2 m/S 741 mmHg 93%
    16:00 +2°C° 0 mm 2 m/S 741 mmHg 94%
    17:00 +1°C° 0 mm 2 m/S 741 mmHg 95%
    18:00 +1°C° 0 mm 2 m/S 741 mmHg 95%
    19:00 +1°C° 0 mm 2 m/S 741 mmHg 95%
    20:00 +1°C° 0 mm 2 m/S 740 mmHg 95%
    21:00 +1°C° 0 mm 2 m/S 740 mmHg 95%
    22:00 0°C° 0 mm 3 m/S 740 mmHg 95%
    23:00 0°C° 0 mm 3 m/S 740 mmHg 94%
    Mehr zeigen